Location: Home
(42.5358°N, 72.7383°W)
Time: 18:02:29
(UTC-05:00)

Tiros 1 - Pass Details

Date: 01 December 2021
Orbit: 629 x 664 km, 48.4° (Epoch: 18 January)

Event Time Altitude Azimuth Distance (km) Brightness Sun altitude
Rises 22:27:05 0° 287° (WNW) 2,947 - -64.4°
Reaches altitude 10° 22:29:31 10° 295° (WNW) 2,043 - -64.7°
Maximum altitude 22:34:00 41° 6° (N) 936 - -65.2°
Drops below altitude 10° 22:38:31 10° 77° (ENE) 2,063 - -65.7°
Sets 22:40:59 0° 85° (E) 2,979 - -66.0°
